sat.trackr.live / text

‹ back to catalog

2025-226A

NORAD 65938 · 2025-226A

PAYLOAD ACTIVE UNKNOWN

§ Identity

Operator
Country
PRC
Launch date
2025-10-11
Launch site
YSLA
Launch vehicle
Mass (kg)
RCS (m²)

External: N2YO · Heavens-Above · Gunter

§ Orbital elements

Epoch: 2026-05-24T04:47:39.701184Z

Period
94.99 min
Inclination
97.6437°
Eccentricity
0.0012896
Mean motion
15.15945482 rev/d
Perigee alt
509.2 km
Apogee alt
527.0 km
Semi-major
6,896.2 km
B*
2.8655e-4
RAAN
224.4840°
Arg perigee
223.9141°
Mean anomaly
136.1068°
Rev number
3,406

§ Raw data

2025-226A1 65938U 25226A   26144.19976506  .00005437  00000+0  28655-3 0  99952 65938  97.6437 224.4840 0012896 223.9141 136.1068 15.15945482 34063

JSON: /api/v1/satellites/65938 · /tle

For live sub-satellite position, see the globe view (requires WebGL).

§ Visibility from observer

Set your observer location to see the next 7 days of passes ≥ 10°. The values pass through the URL so the page stays shareable.

No JS? Fill the form by hand. The geolocation button needs JavaScript.